Regional Weather Roundup
Issued by NWS

Home | Current Version | Previous Version | Graphics & Text | Print | Product List | Glossary On
Versions: 1 2 3 4 5 6 7 8 9 10 11 12 13 14 15 16 17 18 19 20 21 22 23 24 25 26 27 28 29 30 31 32 33 34 35 36 37 38 39 40 41 42 43 44 45 46 47 48 49 50
000
ASUS43 KLMK 111110
RWRKY
KENTUCKY REGIONAL WEATHER ROUNDUP
NATIONAL WEATHER SERVICE LOUISVILLE KY
600 AM EST MON DEC 11 2017

NOTE "FAIR" INDICATES FEW OR NO CLOUDS BELOW 12,000 FEET
WITH NO SIGNIFICANT WEATHER AND/OR OBSTRUCTIONS TO VISIBILITY.

KYZ001>023-026-027-061>063-070>075-111200-
WESTERN AND SOUTH CENTRAL KENTUCKY

CITY           SKY/WX    TMP DP  RH WIND       PRES   REMARKS
PADUCAH        CLEAR     28  25  88 SW5       30.10F WCI  23
HENDERSON      NOT AVBL
OWENSBORO      CLEAR     25  22  88 CALM      30.12F
HOPKINSVILLE   CLEAR     29  24  79 CALM      30.13R
BOWLING GREEN  CLEAR     27  23  85 CALM      30.14S
GLASGOW        CLEAR     24  21  89 CALM      30.13S
$$

KYZ024-025-028>034-038-045-046-053-111200-
NORTH CENTRAL KENTUCKY

CITY           SKY/WX    TMP DP  RH WIND       PRES   REMARKS
LOUISVILLE/SDF CLEAR     29  23  78 SE3       30.11S
LOUISVILLE/LOU CLEAR     25  22  88 CALM      30.12S
FORT KNOX      CLEAR     26  22  86 CALM      30.09S
$$

KYZ035>037-039>044-047>052-055>060-089>105-111200-
NORTHEAST KENTUCKY

CITY           SKY/WX    TMP DP  RH WIND       PRES   REMARKS
LEXINGTON      CLEAR     29  21  72 S3        30.10S
COVINGTON      CLEAR     22  21  96 CALM      30.08F
FRANKFORT      CLEAR     22  17  81 CALM      30.09S
$$

KYZ054-064>069-076>088-106>120-111200-
SOUTHEAST KENTUCKY

CITY           SKY/WX    TMP DP  RH WIND       PRES   REMARKS
JACKSON        CLEAR     33  21  61 SW6       30.09S WCI  28
LONDON         CLEAR     26  20  77 CALM      30.11S
SOMERSET       CLEAR     28  23  80 CALM      30.14R
MIDDLESBORO    CLEAR     24  22  92 CALM      30.14F
MONTICELLO     SUNNY     21  18  88 W10       30.15R WCI  10
$$





USA.gov is the U.S. government's official web portal to all federal, state and local government web resources and services.